This is the latest recevied weather packets stored in our database for station/object KB4RFE. If no packets are shown the sender has not sent any weather packets the latest 10 day(s).
| Time | Temp. | Humidity | Pressure | Rain* | Wind** | Luminosity | Snow |
|---|---|---|---|---|---|---|---|
| 1778106808 | 23.89° C | 81% | 1017.1 hPa | 0 mm | - | 59 W/m² | - |
| 1778106505 | 23.89° C | 80% | 1017.1 hPa | 0 mm | - | 76 W/m² | - |
| 1778106201 | 23.89° C | 80% | 1017.1 hPa | 0 mm | - | 73 W/m² | - |
| 1778105899 | 24.44° C | 79% | 1017.2 hPa | 0 mm | - | 72 W/m² | - |
| 1778105596 | 23.89° C | 79% | 1017.1 hPa | 0 mm | - | 91 W/m² | - |
| 1778105294 | 24.44° C | 79% | 1017.1 hPa | 0 mm | - | 71 W/m² | - |
| 1778104994 | 24.44° C | 78% | 1016.9 hPa | 0 mm | - | 70 W/m² | - |
| 1778104690 | 24.44° C | 79% | 1017 hPa | 0 mm | - | 173 W/m² | - |
| 1778104387 | 24.44° C | 79% | 1017.3 hPa | 0 mm | - | 137 W/m² | - |
| 1778104083 | 24.44° C | 78% | 1017.2 hPa | 0 mm | - | 126 W/m² | - |
| 1778103780 | 24.44° C | 79% | 1017.3 hPa | 0 mm | - | 196 W/m² | - |
| 1778103478 | 24.44° C | 79% | 1017.4 hPa | 0 mm | - | 322 W/m² | - |
| 1778103174 | 25° C | 76% | 1017.4 hPa | 0 mm | - | 372 W/m² | - |
| 1778102872 | 25° C | 77% | 1017.3 hPa | 0 mm | - | 407 W/m² | - |
| 1778102567 | 25° C | 77% | 1017.3 hPa | 0 mm | - | 416 W/m² | - |
| 1778102263 | 25° C | 77% | 1017.4 hPa | 0 mm | - | 445 W/m² | - |
| 1778101959 | 25° C | 76% | 1017.2 hPa | 0 mm | - | 467 W/m² | - |
| 1778101656 | 25° C | 76% | 1017.3 hPa | 0 mm | - | 484 W/m² | - |
| 1778101353 | 25° C | 75% | 1017.4 hPa | 0 mm | - | 505 W/m² | - |
| 1778101051 | 25° C | 75% | 1017.5 hPa | 0 mm | - | 524 W/m² | - |
| 1778100747 | 25° C | 75% | 1017.6 hPa | 0 mm | - | 544 W/m² | - |
| 1778100443 | 25° C | 75% | 1017.5 hPa | 0 mm | - | 546 W/m² | - |
| 1778100140 | 25° C | 76% | 1017.4 hPa | 0 mm | - | 577 W/m² | - |
| 1778099839 | 25.56° C | 75% | 1017.4 hPa | 0 mm | - | 594 W/m² | - |
| 1778099535 | 25.56° C | 73% | 1017.5 hPa | 0 mm | - | 611 W/m² | - |
* Rain latest hour (hover to see other rain measurements)
** Current wind speed in m/s (hover to see current wind gust speed)